Location: Gwatt
(46.7204°N, 7.6223°E)
Time: 17:31:04
(UTC+00:00)

deb Explorer IX - Pass Details

Date: 27 January 2021
Orbit: 537 x 1102 km, 38.8° (Epoch: 04 March)

Event Time Altitude Azimuth Distance (km) Brightness Sun altitude
Rises 20:28:56 0° 268° (W) 3,490 ? -41.3°
Reaches altitude 10° 20:32:20 10° 252° (WSW) 2,430 ? -41.9°
Enters shadow 20:32:51 12° 248° (WSW) 2,291 ? -42.0°
Maximum altitude 20:36:15 19° 209° (SSW) 1,738 - -42.5°
Drops below altitude 10° 20:39:48 10° 164° (SSE) 2,156 - -43.1°
Sets 20:42:36 0° 146° (SE) 2,970 - -43.5°
